Location: Newark
(44.6768°N, 22.5302°E)
Time: 20:20:57
(UTC+00:00)

CAS-6 - Visible Passes

Search period start: 27 June 2022 00:00
Search period end: 07 July 2022 00:00
Orbit: 613 x 635 km, 97.9° (Epoch: 27 June)

Date Brightness Start Highest point End Pass type
(mag) Time Alt. Az. Time Alt. Az. Time Alt. Az.
27 Jun ? 20:24:26 28° SE 20:26:29 56° ENE 20:30:45 10° N visible
27 Jun ? 22:01:40 13° WSW 22:03:00 15° W 22:05:31 10° NW visible
28 Jun ? 19:08:45 10° ENE 19:09:25 10° ENE 19:10:04 10° NE visible
28 Jun ? 20:43:05 35° SSE 20:44:53 87° E 20:49:16 10° NNW visible
29 Jun ? 19:25:04 10° E 19:27:36 15° ENE 19:30:09 10° NNE visible
29 Jun ? 21:01:43 36° SSW 21:03:19 60° W 21:07:38 10° NNW visible
30 Jun ? 19:43:08 13° ESE 19:45:51 22° ENE 19:49:13 10° NNE visible
30 Jun ? 21:20:22 29° SW 21:21:49 38° W 21:25:53 10° NNW visible
01 Jul ? 20:01:46 19° ESE 20:04:07 33° ENE 20:08:01 10° N visible
01 Jul ? 21:39:01 21° WSW 21:40:21 25° W 21:43:56 10° NW visible
02 Jul ? 20:20:26 27° SE 20:22:28 50° ENE 20:26:40 10° N visible
02 Jul ? 21:57:40 15° WSW 21:58:56 16° W 22:01:41 10° NW visible
03 Jul ? 20:39:05 35° SSE 20:40:51 79° ENE 20:45:11 10° N visible
03 Jul ? 22:16:58 10° W 22:17:34 10° W 22:18:11 10° W visible
04 Jul ? 19:21:21 10° E 19:23:36 14° ENE 19:25:51 10° NNE visible
04 Jul ? 20:57:44 38° S 20:59:16 66° WSW 21:03:36 10° NNW visible
05 Jul ? 19:39:08 12° ESE 19:41:50 20° ENE 19:45:02 10° NNE visible
05 Jul ? 21:16:23 32° SW 21:17:45 41° W 21:21:52 10° NNW visible
06 Jul ? 19:57:47 19° ESE 20:00:06 30° ENE 20:03:53 10° N visible
06 Jul ? 21:35:02 23° WSW 21:36:16 27° W 21:39:58 10° NW visible
